Lid_Strength_Index
4 4 4 5 4 3 3 3 3 3 3 3 3 2 2 2 2 2 2 2 2 2 2 2 2 1 3 7 6 1 -2 -3 3 5 6 6 6 6 6 6 7 7 7 7 6 5 5
4 3 3 3 3 3 3 3 3 3 3 3 3 3 2 2 2 2 2 3 3 3 2 2 1 1 5 7 4 1 1 3 4 5 6 6 6 5 6 7 7 6 7 7 6 5 5
2 2 3 3 3 3 3 3 3 3 3 3 3 3 3 3 3 2 3 3 3 3 2 1 1 2 6 5 3 1 2 4 4 5 6 5 5 5 5 7 6 7 7 7 7 5 5
2 2 2 3 3 3 3 3 3 3 3 3 3 3 3 3 3 2 2 3 3 2 2 1 1 2 7 4 3 3 2 3 4 4 5 5 4 5 5 6 6 7 7 8 7 6 6
4 3 3 3 3 3 3 3 3 3 3 3 3 3 3 3 3 2 3 3 2 2 1 1 3 4 6 2 3 2 2 3 4 5 4 5 5 6 6 6 7 7 9 9 8 7 6
2 3 3 3 3 3 3 3 3 3 3 3 3 4 3 3 3 3 3 3 3 2 2 2 2 5 4 5 3 3 3 3 4 5 5 6 6 6 6 6 9 9 9 8 9 8 7
2 3 3 3 3 3 3 3 3 3 3 4 4 4 3 3 3 3 5 6 6 6 5 6 6 6 5 3 3 4 3 4 4 5 7 7 6 8 7 8 8 8 8 8 7 7 7
2 3 3 3 4 4 3 4 3 3 3 4 4 4 3 3 3 3 6 6 5 4 6 5 5 5 4 4 5 4 4 5 5 7 6 6 8 7 7 7 7 7 8 8 7 7 7
2 3 3 4 4 4 3 4 4 4 4 4 4 4 4 4 4 6 7 6 4 3 6 5 4 4 4 4 5 5 4 5 7 7 7 8 7 7 7 7 7 8 8 8 8 7 7
3 3 3 3 4 4 4 4 4 4 4 4 4 4 4 4 5 5 4 4 4 4 7 7 5 4 4 4 5 3 4 4 6 7 7 7 7 7 7 8 7 9 7 8 8 8 10
4 3 3 3 4 4 4 4 4 4 4 4 4 4 4 4 5 5 3 4 4 4 12 7 6 3 4 5 5 4 3 4 6 7 6 8 7 7 7 8 7 8 7 8 8 9 9
5 3 3 3 4 4 4 4 4 4 4 4 4 4 4 4 5 5 4 3 3 7 12 8 5 6 6 6 6 4 4 3 4 6 6 7 6 6 7 7 7 7 8 9 9 9 11
3 3 3 4 4 4 4 4 4 4 5 4 4 4 4 4 4 4 3 3 8 11 8 8 7 7 6 7 7 6 6 6 7 9 9 7 7 6 6 7 7 7 8 11 11 12 13
3 3 3 4 4 4 4 4 5 5 5 5 5 5 4 3 3 3 3 5 11 10 9 6 6 7 8 7 7 7 7 8 6 7 9 10 11 7 7 7 8 8 8 11 15 14 12
3 4 4 4 4 4 4 5 5 5 5 5 6 3 4 2 3 3 4 9 9 9 7 7 7 8 8 7 8 7 7 7 7 6 9 10 10 6 7 7 7 8 10 8 11 11 12
4 4 4 4 4 4 4 4 5 5 5 5 4 4 3 3 3 2 6 10 8 7 6 7 9 8 9 8 8 7 7 6 7 6 6 8 11 7 7 6 7 7 8 11 10 15 15
4 4 4 4 4 4 4 4 5 5 5 6 4 4 2 2 2 4 8 8 8 6 6 8 9 9 8 9 8 8 8 7 6 6 6 7 9 9 7 8 9 8 9 9 10 11 14
4 4 4 4 4 4 4 4 5 5 6 7 6 6 3 2 5 7 7 7 8 7 6 6 7 7 8 8 9 9 8 8 6 5 7 7 9 10 9 7 6 7 9 9 11 13 11
4 4 4 4 4 4 4 4 5 5 6 7 7 6 2 2 8 7 7 7 6 7 7 6 7 6 6 8 10 8 8 6 6 6 7 7 10 12 11 8 7 9 9 9 9 10 12
5 5 5 5 5 4 4 4 5 5 6 5 6 7 4 4 5 6 7 7 7 6 6 6 6 6 7 8 7 9 8 6 6 6 6 6 9 10 12 10 8 10 9 9 9 12 11
5 5 5 5 5 5 5 4 5 5 6 7 7 7 6 8 7 6 6 7 8 8 6 5 7 7 7 9 9 9 8 7 6 5 6 7 10 9 9 9 9 9 9 9 10 9 11
5 5 5 5 5 5 5 4 5 5 6 4 6 6 5 6 6 7 8 8 8 7 6 7 7 6 6 8 8 9 8 7 8 6 7 7 11 9 10 9 9 10 9 9 9 9 9
6 5 5 5 5 5 5 5 5 5 6 4 4 4 5 8 7 7 7 7 7 6 6 5 6 7 7 7 5 5 5 6 6 7 8 8 9 10 12 10 10 12 9 9 8 8 8
6 7 6 6 5 5 5 5 5 5 7 6 5 4 5 8 7 7 7 6 7 6 7 6 5 6 5 4 4 4 5 6 6 7 6 9 9 10 12 11 16 9 7 7 8 8 7
5 5 6 7 6 6 5 5 5 5 5 9 8 3 5 7 6 7 6 6 6 6 6 6 5 4 4 5 7 9 9 8 8 7 7 7 9 12 13 13 11 9 8 9 9 9 7
5 5 6 6 7 7 6 6 5 5 5 8 7 5 3 6 7 6 6 6 7 7 7 6 4 4 4 6 8 12 12 11 11 10 7 7 8 9 12 15 16 9 7 6 6 11 6
5 6 6 6 6 6 6 6 6 6 5 7 8 5 3 6 4 5 6 6 5 6 7 6 6 5 5 7 9 11 11 9 12 12 11 10 10 12 13 13 11 7 6 5 12 11 6
5 6 6 6 6 6 6 5 5 5 6 8 8 7 4 5 4 4 4 5 5 5 7 6 6 6 6 9 9 9 10 9 10 9 10 10 12 12 12 13 14 6 6 9 7 5 5
6 6 7 7 7 6 6 6 5 5 5 7 5 5 4 4 5 6 5 4 4 3 4 5 6 7 5 7 7 8 9 8 9 11 8 11 8 10 10 9 7 5 6 4 5 5 5